Weather History for Lamoni, IA

Change the Weather History Date:

Saturday, December 31, 2011

  Actual Average Record
Temperature  
Mean Temperature 46 °F 24 °F  
Max Temperature 61 °F 33 °F 61 °F (2011)
Min Temperature 31 °F 16 °F -14 °F (1968)
Degree Days  
Heating Degree Days 19 41  
Month to date heating degree days 991 1182  
Since 1 July heating degree days 2144 2429  
Cooling Degree Days 0 0  
Month to date cooling degree days 0 0  
Year to date cooling degree days 1144 946  
Moisture  
Dew Point 31 °F    
Average Humidity 65    
Maximum Humidity 100    
Minimum Humidity 29    
Precipitation  
Precipitation T in 0.04 in 0.43 in (1984)
Month to date precipitation 3.19 1.47  
Year to date precipitation 36.90  
Sea Level Pressure  
Sea Level Pressure 29.69 in    
Wind  
Wind Speed 15 mph (SSW)    
Max Wind Speed 29 mph    
Max Gust Speed 38 mph    
Visibility 10 miles    
Events Snow    
T = Trace of Precipitation, MM = Missing Value Source: NWS Daily Summary

Daily Weather History Graph

Daily Weather History Graph

Search for Another Location

Airport:

Trip Planner

Search our weather history database for the weather conditions in past years. The results will help you decide how hot, cold, wet, or windy it might be!

Date:

Astronomy

Dec. 31, 2011 Rise Set
Actual Time 7:39 AM CST 4:58 PM CST
Civil Twilight 7:08 AM CST 5:28 PM CST
Nautical Twilight 6:34 AM CST 6:03 PM CST
Astronomical Twilight 6:00 AM CST 6:36 PM CST
Moon 11:22 AM CST (12/31) No Moon Set
Length of Visible Light 10h 20m
Length of Day
9h 18m
Waxing Crescent, 45% of the Moon is Illuminated
Dec 31
Waxing Crescent
Jan 1
First Quarter
Jan 9
Full
Jan 16
Last Quarter
Jan 23
New

Hourly Weather History & Observations

Time (CST) Temp. Windchill Dew Point Humidity Pressure Visibility Wind Dir Wind Speed Gust Speed Precip Events Conditions
12:53 AM 35.1 °F 31.0 °F 32.0 °F 89% 29.90 in 10.0 mi SSW 4.6 mph - N/A   Clear
1:53 AM 34.0 °F 28.0 °F 32.0 °F 92% 29.89 in 10.0 mi South 6.9 mph - N/A   Clear
2:53 AM 34.0 °F 28.8 °F 30.9 °F 89% 29.90 in 10.0 mi South 5.8 mph - N/A   Clear
3:53 AM 30.9 °F 25.2 °F 30.0 °F 96% 29.88 in 10.0 mi South 5.8 mph - N/A   Clear
4:53 AM 30.9 °F 21.7 °F 28.9 °F 92% 29.85 in 10.0 mi SSE 11.5 mph - N/A   Clear
6:53 AM 33.1 °F 24.9 °F 30.0 °F 89% 29.81 in 10.0 mi SSE 10.4 mph 17.3 mph N/A   Clear
7:53 AM 35.1 °F 25.9 °F 30.0 °F 82% 29.78 in 10.0 mi SSE 13.8 mph 24.2 mph N/A   Clear
9:53 AM 42.1 °F 33.6 °F 30.0 °F 62% 29.74 in 10.0 mi South 18.4 mph 27.6 mph N/A   Clear
10:53 AM 45.0 °F 37.9 °F 28.9 °F 53% 29.71 in 10.0 mi South 16.1 mph 24.2 mph N/A   Clear
11:53 AM 50.0 °F - 28.9 °F 44% 29.62 in 10.0 mi SSE 17.3 mph 27.6 mph N/A   Clear
12:53 PM 54.0 °F - 30.0 °F 40% 29.56 in 10.0 mi SSE 19.6 mph 28.8 mph N/A   Clear
1:53 PM 59.0 °F - 28.0 °F 31% 29.51 in 10.0 mi South 21.9 mph 36.8 mph N/A   Clear
2:53 PM 60.1 °F - 28.9 °F 31% 29.50 in 10.0 mi South 24.2 mph 33.4 mph N/A   Clear
3:53 PM 60.1 °F - 30.0 °F 32% 29.52 in 10.0 mi SSW 17.3 mph 35.7 mph N/A   Clear
4:53 PM 57.9 °F - 30.9 °F 36% 29.52 in 10.0 mi SSW 12.7 mph - N/A   Clear
5:53 PM 53.1 °F - 30.9 °F 43% 29.53 in 10.0 mi SSW 11.5 mph - N/A   Clear
6:53 PM 51.1 °F - 33.1 °F 50% 29.56 in 10.0 mi West 17.3 mph 24.2 mph N/A   Clear
7:53 PM 43.0 °F 35.7 °F 32.0 °F 65% 29.61 in 10.0 mi West 15.0 mph - N/A   Clear
8:53 PM 39.0 °F 28.5 °F 30.9 °F 73% 29.67 in 10.0 mi WNW 23.0 mph 29.9 mph N/A   Clear
9:36 PM 37.4 °F 27.2 °F 30.2 °F 75% 29.68 in 10.0 mi WNW 19.6 mph 28.8 mph N/A   Mostly Cloudy
10:17 PM 37.4 °F 26.1 °F 33.8 °F 87% 29.72 in 10.0 mi WNW 24.2 mph 34.5 mph N/A   Overcast
11:53 PM 34.0 °F 21.8 °F 32.0 °F 92% 29.82 in 5.0 mi NW 23.0 mph 29.9 mph 0.00 in Snow Light Snow